When you browse on this site, cookies collect data to enhance your experience and personalize the content and advertising you see.
Visit our Privacy Policy to learn more. By continuing to use the site, you agree to this use of cookies and data.
  • In Hungary
  • List of Countries
  • For 7 days
  • Water Temperature
  • Weather Map
  • News
  • Weather Widgets
  • user-avatar
    Login

    Hourly Weather Tysya

    Today, 24 January, Friday

    Time Temperature Precipitation Wind Pressure Humidity
    00:00 -10°C° 0 mm 4 mps 745 mmHg 81%
    01:00 -10°C° 0 mm 4 mps 746 mmHg 83%
    02:00 -10°C° 0 mm 4 mps 746 mmHg 85%
    03:00 -10°C° 0 mm 4 mps 746 mmHg 87%
    04:00 -10°C° 0 mm 4 mps 746 mmHg 88%
    05:00 -10°C° 0 mm 4 mps 746 mmHg 89%
    06:00 -10°C° 0 mm 4 mps 745 mmHg 90%
    07:00 -10°C° 0 mm 4 mps 745 mmHg 90%
    08:00 -10°C° 0 mm 4 mps 745 mmHg 89%
    09:00 -10°C° 0 mm 4 mps 745 mmHg 89%
    10:00 -10°C° 0 mm 5 mps 744 mmHg 88%
    11:00 -9°C° 0 mm 6 mps 744 mmHg 87%
    12:00 -8°C° 0 mm 6 mps 743 mmHg 87%
    13:00 -6°C° 0.1 mm 6 mps 742 mmHg 87%
    14:00 -7°C° 0.1 mm 7 mps 741 mmHg 87%
    15:00 -6°C° 0.1 mm 7 mps 740 mmHg 87%
    16:00 -6°C° 0.3 mm 7 mps 740 mmHg 90%
    17:00 -6°C° 0.3 mm 7 mps 739 mmHg 93%
    18:00 -4°C° 0.3 mm 7 mps 738 mmHg 95%
    19:00 -4°C° 0.2 mm 7 mps 738 mmHg 96%
    20:00 -3°C° 0.2 mm 7 mps 737 mmHg 96%
    21:00 -2°C° 0.2 mm 7 mps 736 mmHg 96%
    22:00 -2°C° 0.1 mm 7 mps 736 mmHg 95%
    23:00 -1°C° 0.1 mm 7 mps 736 mmHg 94%

    Tomorrow, 25 January, Saturday

    Time Temperature Precipitation Wind Pressure Humidity
    00:00 -1°C° 0.1 mm 7 mps 736 mmHg 93%
    01:00 -1°C° 0 mm 6 mps 736 mmHg 92%
    02:00 -1°C° 0 mm 5 mps 736 mmHg 90%
    03:00 -2°C° 0 mm 4 mps 737 mmHg 89%
    04:00 -2°C° 0 mm 4 mps 737 mmHg 91%
    05:00 -2°C° 0 mm 4 mps 737 mmHg 93%
    06:00 -3°C° 0 mm 4 mps 737 mmHg 95%
    07:00 -2°C° 0.1 mm 5 mps 737 mmHg 95%
    08:00 -1°C° 0.1 mm 5 mps 736 mmHg 94%
    09:00 -2°C° 0.1 mm 6 mps 736 mmHg 93%
    10:00 -2°C° 0.1 mm 6 mps 736 mmHg 93%
    11:00 -1°C° 0.1 mm 6 mps 736 mmHg 92%
    12:00 -1°C° 0.1 mm 6 mps 736 mmHg 91%
    13:00 -1°C° 0 mm 6 mps 735 mmHg 90%
    14:00 -1°C° 0 mm 6 mps 735 mmHg 89%
    15:00 -1°C° 0 mm 7 mps 734 mmHg 88%
    16:00 -1°C° 0.1 mm 7 mps 734 mmHg 85%
    17:00 -2°C° 0.1 mm 8 mps 733 mmHg 83%
    18:00 -2°C° 0.1 mm 8 mps 733 mmHg 81%
    19:00 -2°C° 0.1 mm 8 mps 733 mmHg 80%
    20:00 -4°C° 0.1 mm 8 mps 734 mmHg 78%
    21:00 -5°C° 0.1 mm 8 mps 734 mmHg 76%
    22:00 -5°C° 0 mm 8 mps 735 mmHg 76%
    23:00 -6°C° 0 mm 7 mps 735 mmHg 76%

    Day after tomorrow, 26 January, Sunday

    Time Temperature Precipitation Wind Pressure Humidity
    00:00 -5°C° 0 mm 6 mps 736 mmHg 76%
    01:00 -5°C° 0 mm 6 mps 736 mmHg 77%
    02:00 -6°C° 0 mm 7 mps 737 mmHg 78%
    03:00 -6°C° 0 mm 7 mps 737 mmHg 78%
    04:00 -6°C° 0 mm 7 mps 738 mmHg 80%
    05:00 -6°C° 0 mm 7 mps 739 mmHg 81%
    06:00 -6°C° 0 mm 8 mps 739 mmHg 83%
    07:00 -7°C° 0 mm 7 mps 740 mmHg 82%
    08:00 -7°C° 0 mm 7 mps 741 mmHg 81%
    09:00 -6°C° 0 mm 6 mps 742 mmHg 80%
    10:00 -5°C° 0 mm 6 mps 743 mmHg 79%
    11:00 -6°C° 0 mm 7 mps 744 mmHg 77%
    12:00 -6°C° 0 mm 7 mps 745 mmHg 76%
    13:00 -5°C° 0 mm 6 mps 745 mmHg 76%
    14:00 -5°C° 0 mm 6 mps 746 mmHg 76%
    15:00 -5°C° 0 mm 6 mps 746 mmHg 76%
    16:00 -5°C° 0 mm 5 mps 746 mmHg 77%
    17:00 -6°C° 0 mm 5 mps 747 mmHg 79%
    18:00 -6°C° 0 mm 5 mps 747 mmHg 81%
    19:00 -6°C° 0 mm 5 mps 747 mmHg 81%
    20:00 -6°C° 0 mm 5 mps 747 mmHg 81%
    21:00 -6°C° 0 mm 5 mps 747 mmHg 81%
    22:00 -5°C° 0 mm 5 mps 747 mmHg 81%
    23:00 -5°C° 0 mm 5 mps 746 mmHg 81%

    27 January, Monday

    Time Temperature Precipitation Wind Pressure Humidity
    00:00 -5°C° 0 mm 5 mps 746 mmHg 82%
    01:00 -5°C° 0.2 mm 6 mps 746 mmHg 86%
    02:00 -4°C° 0.2 mm 6 mps 745 mmHg 90%
    03:00 -4°C° 0.2 mm 7 mps 745 mmHg 95%
    04:00 -3°C° 0 mm 7 mps 745 mmHg 94%
    05:00 -3°C° 0 mm 7 mps 745 mmHg 93%
    06:00 -2°C° 0 mm 7 mps 745 mmHg 93%
    07:00 -2°C° 0.1 mm 6 mps 745 mmHg 93%
    08:00 -2°C° 0.1 mm 6 mps 745 mmHg 94%
    09:00 -1°C° 0.1 mm 6 mps 745 mmHg 94%
    10:00 -1°C° 0.1 mm 6 mps 745 mmHg 94%
    11:00 -1°C° 0.1 mm 6 mps 746 mmHg 93%
    12:00 -1°C° 0.1 mm 6 mps 746 mmHg 92%
    13:00 -1°C° 0 mm 6 mps 746 mmHg 92%
    14:00 -1°C° 0 mm 6 mps 746 mmHg 92%
    15:00 -1°C° 0 mm 6 mps 746 mmHg 92%
    16:00 -1°C° 0 mm 5 mps 746 mmHg 92%
    17:00 -1°C° 0 mm 5 mps 746 mmHg 93%
    18:00 -1°C° 0 mm 5 mps 747 mmHg 93%
    19:00 -1°C° 0 mm 5 mps 747 mmHg 94%
    20:00 -1°C° 0 mm 4 mps 747 mmHg 95%
    21:00 -2°C° 0 mm 4 mps 747 mmHg 95%
    22:00 -2°C° 0 mm 4 mps 747 mmHg 96%
    23:00 -2°C° 0 mm 4 mps 747 mmHg 96%

    28 January, Tuesday

    Time Temperature Precipitation Wind Pressure Humidity
    00:00 -2°C° 0 mm 4 mps 747 mmHg 96%
    01:00 -2°C° 0 mm 4 mps 747 mmHg 96%
    02:00 -2°C° 0 mm 4 mps 747 mmHg 96%
    03:00 -1°C° 0 mm 3 mps 747 mmHg 96%
    04:00 -1°C° 0.1 mm 3 mps 746 mmHg 96%
    05:00 -1°C° 0.1 mm 3 mps 746 mmHg 96%
    06:00 -1°C° 0.1 mm 3 mps 746 mmHg 96%
    07:00 -1°C° 0.1 mm 3 mps 746 mmHg 96%
    08:00 -1°C° 0.1 mm 3 mps 746 mmHg 97%
    09:00 -1°C° 0.1 mm 3 mps 746 mmHg 97%
    10:00 -1°C° 0.1 mm 3 mps 746 mmHg 97%
    11:00 -1°C° 0.1 mm 3 mps 746 mmHg 97%
    12:00 -1°C° 0.1 mm 3 mps 746 mmHg 97%
    13:00 -1°C° 0 mm 2 mps 746 mmHg 97%
    14:00 -1°C° 0 mm 2 mps 746 mmHg 98%
    15:00 -1°C° 0 mm 2 mps 746 mmHg 98%
    16:00 -1°C° 0.1 mm 2 mps 746 mmHg 98%
    17:00 -1°C° 0.1 mm 2 mps 746 mmHg 98%
    18:00 -1°C° 0.1 mm 2 mps 746 mmHg 98%
    19:00 -1°C° 0.1 mm 2 mps 746 mmHg 98%
    20:00 -1°C° 0.1 mm 2 mps 746 mmHg 98%
    21:00 -1°C° 0.1 mm 2 mps 746 mmHg 98%
    22:00 -1°C° 0 mm 2 mps 746 mmHg 97%
    23:00 -1°C° 0 mm 3 mps 746 mmHg 97%

    29 January, Wednesday

    Time Temperature Precipitation Wind Pressure Humidity
    00:00 -1°C° 0 mm 3 mps 747 mmHg 97%
    01:00 -1°C° 0.1 mm 3 mps 747 mmHg 97%
    02:00 -1°C° 0.1 mm 3 mps 746 mmHg 96%
    03:00 -1°C° 0.1 mm 3 mps 746 mmHg 96%
    04:00 -1°C° 0 mm 3 mps 746 mmHg 95%
    05:00 -2°C° 0 mm 4 mps 746 mmHg 94%
    06:00 -2°C° 0 mm 4 mps 746 mmHg 93%
    07:00 -2°C° 0 mm 4 mps 746 mmHg 93%
    08:00 -2°C° 0 mm 4 mps 746 mmHg 93%
    09:00 -2°C° 0 mm 4 mps 746 mmHg 93%
    10:00 -1°C° 0 mm 5 mps 746 mmHg 94%
    11:00 -1°C° 0 mm 5 mps 746 mmHg 95%
    12:00 -2°C° 0 mm 6 mps 746 mmHg 96%
    13:00 -2°C° 0 mm 6 mps 745 mmHg 96%
    14:00 -2°C° 0 mm 6 mps 745 mmHg 96%
    15:00 -2°C° 0 mm 7 mps 744 mmHg 96%
    16:00 -2°C° 0.2 mm 7 mps 744 mmHg 96%
    17:00 -1°C° 0.2 mm 7 mps 744 mmHg 96%
    18:00 -1°C° 0.2 mm 7 mps 744 mmHg 96%
    19:00 -1°C° 0.3 mm 7 mps 744 mmHg 96%
    20:00 -1°C° 0.3 mm 6 mps 744 mmHg 97%
    21:00 -1°C° 0.3 mm 6 mps 744 mmHg 97%
    22:00 -1°C° 0 mm 6 mps 744 mmHg 96%
    23:00 0°C° 0 mm 5 mps 744 mmHg 95%
    Show more